Home   Weather   Resistencia   Past weeks

Flag for Argentina Past Weather in Resistencia, Chaco, Argentina — Yesterday and Last 2 Weeks

Now
73 °F

Clear.


Feels Like: 70 °F
Forecast: 72 / 82 °F
Wind: 2 mph from Southwest

Location: Resistencia Aero.

Current Time: Jan 24, 2017 at 6:01:40 am

Latest Report: Jan 24, 2017 at 5:00 am


Visibility: 10 mi

Pressure: 29.74 "Hg

Humidity: 94%

Dew Point: 72 °F

Location of ResistenciaLocation

Past Weather in Resistencia — Graph

°F

Resistencia Temperature Yesterday

Maximum temperature yesterday: 95 °F (at 3:00 pm)
Minimum temperature yesterday: 73 °F (at 6:00 am)
Average temperature yesterday: 82 °F

High & Low Weather Summary for the Past Weeks

 TemperatureHumidityPressure
High99 °F (Jan 9, 3:00 pm)100% (Jan 10, 6:00 am)29.98 "Hg (Jan 10, 6:00 am)
Low68 °F (Jan 10, 5:00 pm)34% (Jan 19, 2:00 pm)29.47 "Hg (Jan 9, 6:00 pm)
Average83 °F74%29.77 "Hg
* Reported Jan 9 5:00 am — Jan 24 5:00 am, Resistencia, Weather by CustomWeather, © 2017

Note: Actual official high and low records may vary slightly from our data, if they occured in-between our weather recording intervals... More about our weather records

Advertising

Resistencia Weather History for the Previous 24 Hours

Scroll right to see more
 ConditionsComfort  
Time TempWeatherWind HumidityBarometerVisibility
5:00 am
Tue, Jan 24
73 °FClear.2 mph94%29.74 "Hg10 mi
4:00 am73 °FPassing clouds.3 mph94%29.74 "HgN/A
3:00 am73 °FClear.3 mph89%29.77 "Hg10 mi
2:00 am73 °FClear.5 mph89%29.80 "Hg10 mi
1:00 am73 °FClear.2 mph94%29.80 "Hg10 mi
12:00 am72 °FClear.2 mph94%29.80 "Hg10 mi
11:00 pm
Mon, Jan 23
73 °FClear.2 mph94%29.80 "Hg10 mi
10:00 pm75 °FOvercast.1 mph89%29.80 "HgN/A
9:00 pm77 °FClear.5 mph79%29.77 "Hg10 mi
8:00 pm77 °FPassing clouds.5 mph79%29.77 "HgN/A
7:00 pm79 °FBroken clouds.10 mph74%29.80 "HgN/A
6:00 pm79 °FThundershowers. Broken clouds.5 mph79%29.77 "HgN/A
5:00 pm81 °FThunderstorms. Broken clouds.7 mph74%29.77 "HgN/A
4:00 pm90 °FThunderstorms. Broken clouds.6 mph52%29.74 "HgN/A
3:00 pm95 °FThunderstorms. Scattered clouds.8 mph47%29.77 "HgN/A
2:30 pm93 °FThunderstorms. Broken clouds.9 mph47%29.77 "HgN/A
2:00 pm90 °FBroken clouds.3 mph59%29.80 "HgN/A
1:00 pm93 °FBroken clouds.5 mph49%29.80 "HgN/A
12:00 pm90 °FScattered clouds.2 mph55%29.83 "HgN/A
11:00 am91 °FPartly sunny.5 mph52%29.83 "HgN/A
10:00 am88 °FPartly sunny.5 mph59%29.83 "HgN/A
9:00 am84 °FPassing clouds.6 mph70%29.83 "HgN/A
8:00 am81 °FPassing clouds.7 mph79%29.83 "HgN/A
7:00 am75 °FSunny.3 mph89%29.80 "Hg10 mi
6:00 am73 °FClear.3 mph94%29.80 "Hg10 mi
Weather by CustomWeather, © 2017

See weather overviewHow to use our weather pages